Regional Weather Roundup
Issued by NWS Goodland, KS

Home | Current Version | Previous Version | Graphics & Text | Print | Product List | Glossary On
Versions: 1 2 3 4 5 6 7 8 9 10 11 12 13 14 15 16 17 18 19 20 21 22 23 24 25 26 27 28 29 30 31 32 33 34 35 36 37 38 39 40 41 42 43 44 45 46 47 48 49 50
000
ASUS43 KGLD 251959
RWRGLD

GOODLAND FORECAST AREA HOURLY WEATHER ROUNDUP
NATIONAL WEATHER SERVICE GOODLAND KS
200 PM MDT SUN JUN 25 2017

...OFFICIAL OBSERVATIONS...

CITY           SKY/WX    TMP DP  RH WIND       PRES   REMARKS
GOODLAND KS    CLOUDY    61  57  87 E18       30.33S
HILL CITY KS   CLOUDY    63  56  78 E10       30.34F
IMPERIAL NEB   PTSUNNY   67  46  47 S12       30.33S
MCCOOK NEB     PTSUNNY   70  45  40 SE9       30.33R
AKRON CO       CLOUDY    63  51  65 E12       30.34F
BURLINGTON CO  CLOUDY    69  55  60 SE17G23   30.31F
LIMON CO       MOSUNNY   76  52  43 SE17G24   30.31F
$$

...UNOFFICIAL OBSERVATIONS...

CITY           SKY/WX    TMP DP  RH WIND       PRES   REMARKS
LENORA KS        N/A     62  32  32 MISG        N/A
NORTON KS      SUNNY     72  41  33 E13G20    30.31F
SHARON SPRINGS   N/A     63  57  80 E12G21      N/A
TRENTON NEB      N/A     69  32  25 SE8         N/A
KIT CARSON CO    N/A     73  55  53 MISG        N/A
YUMA CO        CLOUDY    59  46  63 E10       30.34F
$$




USA.gov is the U.S. government's official web portal to all federal, state and local government web resources and services.